Regional Weather Roundup
Issued by NWS

Home | Current Version | Previous Version | Text Only | Print | Product List | Glossary Off
Versions: 1 2 3 4 5 6 7 8 9 10 11 12 13 14 15 16 17 18 19 20 21 22 23 24 25 26 27 28 29 30 31 32 33 34 35 36 37 38 39 40 41 42 43 44 45 46 47 48 49 50

000
ASUS43 KFSD 261802
RWRSD

WEATHER ROUNDUP FOR SOUTH DAKOTA
NATIONAL WEATHER SERVICE SIOUX FALLS SD
1200 PM CST MON JAN 26 2015

NOTE: "FAIR" INDICATES FEW OR NO CLOUDS BELOW 12,000 FEET WITH NO
SIGNIFICANT WEATHER AND/OR OBSTRUCTIONS TO VISIBILITY.


SDZ001>005-009-010-012>017-261900-
NORTHWEST AND NORTH CENTRAL SOUTH DAKOTA

CITY           SKY/WX    TMP DP  RH WIND       PRES   REMARKS
BUFFALO          N/A     55  33  43 W14       29.97S
FAITH            N/A     53  30  41 NW15      30.02R
MOBRIDGE       SUNNY     49  36  61 W10       29.95R
$$

SDZ012>016-024>037-041>051-057-063-072>074-261900-
SOUTHWEST AND SOUTH CENTRAL SOUTH DAKOTA

CITY           SKY/WX    TMP DP  RH WIND       PRES   REMARKS
RAPID CTY ARPT MOSUNNY   65  29  25 NW16G24   30.07R
PIERRE         SUNNY     51  33  50 W15       30.00R
CUSTER         SUNNY     56  26  31 MISG      30.14S
ELLSWORTH AFB  SUNNY     64  31  29 NW15      30.06R
PHILIP         SUNNY     60  31  33 NW15      30.03R
PINE RIDGE     MOSUNNY   55  34  45 W10       30.11S
WINNER         FAIR      57  32  38 NW16      30.02R
$$

SDZ004>011-016>023-039-040-261900-
NORTHEAST SOUTH DAKOTA

CITY           SKY/WX    TMP DP  RH WIND       PRES   REMARKS
ABERDEEN       SUNNY     45  35  68 NW14      29.93R
WATERTOWN      SUNNY     41  34  76 NW14      29.86R
SISSETON         N/A     44  35  70 NW24G35   29.83R
$$

SDZ017-020-022-023-036>040-048>070-261900-
SOUTHEAST SOUTH DAKOTA

CITY           SKY/WX    TMP DP  RH WIND       PRES   REMARKS
SIOUX FALLS    MOSUNNY   45  37  73 NW20      29.89R
HURON          SUNNY     47  37  68 NW22G32   29.93R
MITCHELL       SUNNY     49  38  65 NW20      29.95R
YANKTON        SUNNY     48  37  66 NW20      29.95F
$$

ABBREVIATIONS USED IN REMARKS
   TC - TEMPERATURE IN CELSIUS
  WCI - WIND CHILL INDEX
   HX - HEAT INDEX
  VSB - VISIBILITY



USA.gov is the U.S. government's official web portal to all federal, state and local government web resources and services.